Regional Weather Roundup
Issued by NWS

Home | Current Version | Previous Version | Text Only | Print | Product List | Glossary Off
Versions: 1 2 3 4 5 6 7 8 9 10 11 12 13 14 15 16 17 18 19 20 21 22 23 24 25 26 27

000
ASUS45 KCYS 170210
RWRWY

WYOMING REGIONAL WEATHER ROUNDUP
NATIONAL WEATHER SERVICE CHEYENNE WY
700 PM MST SAT DEC 16 2017

NOTE:  "FAIR" INDICATES FEW OR NO CLOUDS BELOW 12,000 FEET
WITH NO SIGNIFICANT WEATHER AND/OR OBSTRUCTIONS TO VISIBILITY.

WYZ001-170300-
YELLOWSTONE NATIONAL PARK

CITY           SKY/WX    TMP DP  RH WIND       PRES   REMARKS
LK YELLOWSTONE   N/A     16  13  88 CALM      29.93R
W YELLOWSTONE  NOT AVBL

$$
WYZ002>013-054>058-071-098>099-170300-
NORTHERN WYOMING

CITY           SKY/WX    TMP DP  RH WIND       PRES   REMARKS
JACKSON        FLURRIES  22  18  85 N7        29.92  WCI  13
CODY           FLURRIES  26  21  81 N7        29.98R WCI  18
GREYBULL       FLURRIES  29  27  92 NW12      29.96R WCI  19
WORLAND        LGT SNOW  28  28 100 NW7       29.97R FOG     WCI  21
SHERIDAN       LGT SNOW  29  28  96 CALM      30.03R FOG
BUFFALO        LGT SNOW  27  22  81 W3        30.00R
GILLETTE       LGT SNOW  28  26  92 N5        30.00S FOG     WCI  23
HULETT         LGT SNOW  30  27  86 CALM      30.02R
NEWCASTLE      LGT SNOW  30  30 100 N5        30.00R WCI  25

$$
WYZ014>020-022>026-101>103-170300-
CENTRAL WYOMING

CITY           SKY/WX    TMP DP  RH WIND       PRES   REMARKS
BIG PINEY      CLOUDY    25  22  88 N6        29.85R WCI  18
PINEDALE       CLOUDY    25  23  93 NW8       29.85R WCI  16
DUBOIS         LGT SNOW  23  23 100 CALM      29.86R
LANDER         LGT SNOW  28  28 100 N7        29.88R FOG     WCI  21
RIVERTON       LGT SNOW  27  26  96 E18       29.90R FOG     WCI  14
CASPER         LGT SNOW  26  24  92 NE9       29.93R FOG     WCI  17
DOUGLAS        CLOUDY    31  27  85 E9        29.94R WCI  23

$$
WYZ021-027>030-104>119-170300-
SOUTHERN WYOMING

CITY           SKY/WX    TMP DP  RH WIND       PRES   REMARKS
EVANSTON       CLOUDY    24  23  96 N10       29.88R WCI  14
FORT BRIDGER   FLURRIES  27  26  96 W12       29.89R WCI  17
ROCK SPRINGS   CLOUDY    29  25  85 E9        29.84R WCI  20
DIXON          FAIR      26  17  68 E3        29.83R
RAWLINS        FAIR      30  22  72 NE12      29.83R WCI  20
SARATOGA       FAIR      23  16  74 S13       29.82S WCI  11
LARAMIE        FAIR      26  19  74 E10       29.83R WCI  16
CHEYENNE       MOCLDY    29  26  89 NE10      29.89R WCI  20
TORRINGTON     CLOUDY    34  27  75 E8        29.96R WCI  27
PINE BLUFFS    MOCLDY    30  27  86 NE10      29.92R WCI  21

$$




USA.gov is the U.S. government's official web portal to all federal, state and local government web resources and services.